Location: Dreilärchen
(47.9312°N, 8.6113°E)
Time: 00:08:27
(UTC+00:00)

Cosmos 2228 - Pass Details

Date: 26 May 2022
Orbit: 586 x 617 km, 82.5° (Epoch: 02 July)

Event Time Altitude Azimuth Distance (km) Brightness Sun altitude
Rises 01:56:06 0° 350° (N) 2,895 7.2 -12.9°
Reaches altitude 10° 01:58:20 10° 352° (N) 1,982 6.3 -12.6°
Maximum altitude 02:02:44 85° 80° (E) 618 3.1 -12.2°
Drops below altitude 10° 02:07:03 10° 170° (S) 1,947 5.2 -11.7°
Enters shadow 02:07:57 - 170° (S) 2,308 5.6 -11.7°
